sat.trackr.live / text

‹ back to catalog

STARLINK-30864

NORAD 58243 · 2023-171P

PAYLOAD ACTIVE UNKNOWN

§ Identity

Operator
Country
US
Launch date
2023-11-08
Launch site
AFETR
Launch vehicle
Mass (kg)
RCS (m²)

Purposes: comms

External: N2YO · Heavens-Above · Gunter

§ Orbital elements

Epoch: 2026-05-25T04:33:59.688288Z

Period
94.27 min
Inclination
42.9996°
Eccentricity
0.0001296
Mean motion
15.27587578 rev/d
Perigee alt
482.1 km
Apogee alt
483.9 km
Semi-major
6,861.2 km
B*
3.5797e-5
RAAN
213.2598°
Arg perigee
309.2342°
Mean anomaly
50.8394°
Rev number
14,133

§ Raw data

STARLINK-308641 58243U 23171P   26145.19027417  .00000723  00000+0  35797-4 0  99912 58243  42.9996 213.2598 0001296 309.2342  50.8394 15.27587578141330

JSON: /api/v1/satellites/58243 · /tle

For live sub-satellite position, see the globe view (requires WebGL).

§ Visibility from observer

Set your observer location to see the next 7 days of passes ≥ 10°. The values pass through the URL so the page stays shareable.

No JS? Fill the form by hand. The geolocation button needs JavaScript.